| time (UTC) | temp F | wind direction | speed MPH | gust MPH | rain 1hr in | rain 24hr in | rain mn in | humidity % | barometer mb |
| 20260504040055 | 63 | 0 | 0.0 | 0.0 | 0.00 | 0.00 | 0.00 | 76 | 1019.4 |
| 20260504034606 | 64 | 0 | 0.0 | 0.0 | 0.00 | 0.00 | 0.00 | 74 | 1019.3 |
| 20260504033059 | 64 | 0 | 0.0 | 0.0 | 0.00 | 0.00 | 0.00 | 72 | 1019.3 |
| 20260504031602 | 65 | 0 | 0.0 | 0.0 | 0.00 | 0.00 | 0.00 | 71 | 1019.3 |
| 20260504030113 | 66 | 0 | 0.0 | 0.0 | 0.00 | 0.00 | 0.00 | 68 | 1019.2 |
| 20260504024551 | 66 | 0 | 0.0 | 0.0 | 0.00 | 0.00 | 0.00 | 67 | 1019.2 |
| 20260504023057 | 67 | 0 | 0.0 | 0.0 | 0.00 | 0.00 | 0.00 | 66 | 1019.2 |
| 20260504021603 | 67 | 0 | 0.0 | 0.0 | 0.00 | 0.00 | 0.00 | 65 | 1019.1 |
| 20260504020051 | 68 | 0 | 0.0 | 0.0 | 0.00 | 0.00 | 0.00 | 64 | 1019.1 |
| 20260504014553 | 68 | 0 | 0.0 | 2.0 | 0.00 | 0.00 | 0.00 | 65 | 1018.8 |
| 20260504013050 | 68 | 0 | 0.0 | 1.0 | 0.00 | 0.00 | 0.00 | 64 | 1018.9 |
| 20260504011553 | 69 | 0 | 0.0 | 0.0 | 0.00 | 0.00 | 0.00 | 63 | 1018.8 |
| 20260504010054 | 70 | 0 | 0.0 | 0.0 | 0.00 | 0.00 | 0.00 | 62 | 1018.8 |
| 20260504004553 | 71 | 0 | 0.0 | 3.0 | 0.00 | 0.00 | 0.00 | 59 | 1018.9 |
| 20260504003051 | 73 | 206 | 0.0 | 2.0 | 0.00 | 0.00 | 0.00 | 57 | 1018.8 |
| 20260504001553 | 74 | 0 | 0.0 | 2.0 | 0.00 | 0.00 | 0.00 | 53 | 1018.9 |
| 20260504000129 | 76 | 206 | 0.0 | 2.0 | 0.00 | 0.00 | 0.00 | 50 | 1019.1 |
| 20260503234556 | 76 | 0 | 0.0 | 2.0 | 0.00 | 0.00 | 0.00 | 50 | 1019.2 |
| 20260503233053 | 76 | 0 | 0.0 | 2.0 | 0.00 | 0.00 | 0.00 | 51 | 1019.3 |
| 20260503231552 | 76 | 0 | 0.0 | 5.0 | 0.00 | 0.00 | 0.00 | 49 | 1019.5 |
| 20260503230054 | 77 | 0 | 1.0 | 9.0 | 0.00 | 0.00 | 0.00 | 47 | 1019.5 |
| 20260503224553 | 78 | 0 | 0.0 | 4.0 | 0.00 | 0.00 | 0.00 | 49 | 1019.6 |
| 20260503223054 | 79 | 0 | 0.0 | 3.0 | 0.00 | 0.00 | 0.00 | 46 | 1019.9 |
| 20260503221557 | 79 | 0 | 0.0 | 6.0 | 0.00 | 0.00 | 0.00 | 47 | 1019.8 |
| 20260503220057 | 79 | 0 | 0.0 | 3.0 | 0.00 | 0.00 | 0.00 | 47 | 1019.9 |
| 20260503214550 | 79 | 0 | 0.0 | 3.0 | 0.00 | 0.00 | 0.00 | 46 | 1020.1 |
| 20260503213053 | 80 | 0 | 0.0 | 4.0 | 0.00 | 0.00 | 0.00 | 45 | 1020.2 |
| 20260503211551 | 79 | 0 | 0.0 | 3.0 | 0.00 | 0.00 | 0.00 | 48 | 1020.4 |
| 20260503210052 | 80 | 0 | 1.0 | 6.0 | 0.00 | 0.00 | 0.00 | 46 | 1020.5 |
| 20260503204554 | 80 | 213 | 0.0 | 5.0 | 0.00 | 0.00 | 0.00 | 48 | 1020.7 |
| 20260503203052 | 80 | 0 | 0.0 | 4.0 | 0.00 | 0.00 | 0.00 | 46 | 1020.9 |
| 20260503201552 | 80 | 167 | 0.0 | 2.0 | 0.00 | 0.00 | 0.00 | 48 | 1021.2 |
| 20260503200051 | 80 | 208 | 0.0 | 4.0 | 0.00 | 0.00 | 0.00 | 45 | 1021.3 |
| 20260503194554 | 80 | 211 | 0.0 | 5.0 | 0.00 | 0.00 | 0.00 | 46 | 1021.6 |
| 20260503193052 | 80 | 0 | 0.0 | 4.0 | 0.00 | 0.00 | 0.00 | 46 | 1021.7 |
| 20260503191551 | 80 | 0 | 0.0 | 2.0 | 0.00 | 0.00 | 0.00 | 44 | 1022.0 |
| 20260503190052 | 78 | 0 | 0.0 | 6.0 | 0.00 | 0.00 | 0.00 | 47 | 1022.2 |
| 20260503184605 | 78 | 0 | 1.0 | 4.0 | 0.00 | 0.00 | 0.00 | 45 | 1022.3 |
| 20260503183055 | 79 | 0 | 0.0 | 3.0 | 0.00 | 0.00 | 0.00 | 46 | 1022.5 |
| 20260503181556 | 79 | 0 | 0.0 | 4.0 | 0.00 | 0.00 | 0.00 | 45 | 1022.7 |
| 20260503180056 | 78 | 0 | 0.0 | 3.0 | 0.00 | 0.00 | 0.00 | 44 | 1022.9 |
| 20260503174554 | 78 | 0 | 0.0 | 4.0 | 0.00 | 0.00 | 0.00 | 47 | 1023.2 |
| 20260503173058 | 78 | 0 | 0.0 | 2.0 | 0.00 | 0.00 | 0.00 | 46 | 1023.4 |
| 20260503171610 | 77 | 128 | 0.0 | 2.0 | 0.00 | 0.00 | 0.00 | 44 | 1023.5 |
| 20260503170105 | 77 | 122 | 0.0 | 4.0 | 0.00 | 0.00 | 0.00 | 44 | 1023.6 |
| 20260503081552 | 54 | 0 | 0.0 | 0.0 | 0.00 | 0.00 | 0.00 | 88 | 1021.4 |
| 20260503080107 | 54 | 0 | 0.0 | 0.0 | 0.00 | 0.00 | 0.00 | 88 | 1021.4 |
| 20260503071606 | 54 | 0 | 0.0 | 0.0 | 0.00 | 0.00 | 0.00 | 88 | 1021.4 |
| 20260503054600 | 56 | 0 | 0.0 | 0.0 | 0.00 | 0.00 | 0.00 | 87 | 1021.4 |
| 20260503053052 | 57 | 0 | 0.0 | 0.0 | 0.00 | 0.00 | 0.00 | 86 | 1021.4 |
| 20260503051553 | 57 | 0 | 0.0 | 0.0 | 0.00 | 0.00 | 0.00 | 86 | 1021.3 |
| 20260503050055 | 57 | 0 | 0.0 | 0.0 | 0.00 | 0.00 | 0.00 | 86 | 1021.1 |
| 20260503044557 | 57 | 0 | 0.0 | 0.0 | 0.00 | 0.00 | 0.00 | 85 | 1020.9 |
| 20260503043051 | 58 | 0 | 0.0 | 0.0 | 0.00 | 0.00 | 0.00 | 85 | 1021.2 |
| 20260503041553 | 58 | 0 | 0.0 | 0.0 | 0.00 | 0.00 | 0.00 | 84 | 1021.1 |